Location: West Sayville
(40.7279°N, 73.0976°W)
Time: 04:57:11
(UTC+00:00)

H-2A R/B - Pass Details

Date: 29 October 2020
Orbit: 733 x 837 km, 98.2° (Epoch: 29 November)

Event Time Altitude Azimuth Distance (km) Brightness Sun altitude
Exits shadow 22:58:22 - 132° (SE) 2,935 4.6 -13.2°
Reaches altitude 10° 22:59:48 10° 126° (SE) 2,433 4.2 -13.4°
Maximum altitude 23:04:26 30° 67° (ENE) 1,469 2.9 -14.3°
Drops below altitude 10° 23:09:06 10° 8° (N) 2,459 4.5 -15.2°
Sets 23:11:43 0° 358° (N) 3,394 5.3 -15.7°
